User: anonymous
Location: Caltech
(34.1382°N, 118.1253°W)
Time: 07:35:01
(UTC-07:00)
Language:

PANSAT - Orbit

View from above orbital plane
View from above orbital plane
View from above satellite
View from above satellite

Ground track
Ground track

The orbit data is extracted from the following two-line orbital elements,

1 25520U 98064B   14231.24955684  .00002042  00000-0  73988-4 0  5516
2 25520 028.4577 163.0435 0004432 080.9992 048.9234 15.23778158876267
Epoch (UTC): 19 August 2014 05:59:21
Eccentricity: 0.0004432
inclination: 28.4577°
perigee height: 491 km
apogee height: 497 km
right ascension of ascending node: 163.0435°
argument of perigee: 80.9992°
revolutions per day: 15.23778158
mean anomaly at epoch: 48.9234°
orbit number at epoch: 87626

The dashed part of the orbit path shows where the satellite is in the earth's shadow,  

DLR